This is the latest recevied weather packets stored in our database for station/object DJ2RF. If no packets are shown the sender has not sent any weather packets the latest 1 day(s).
| Time | Temp. | Humidity | Pressure | Rain* | Wind** | Luminosity | Snow |
|---|---|---|---|---|---|---|---|
| 1778057086 | 16.67° C | 71% | 1008.7 hPa | 0 mm | - | - | - |
| 1778056582 | 16.11° C | 71% | 1008.7 hPa | 0 mm | - | - | - |
| 1778055517 | 16.11° C | 72% | 1008.9 hPa | 0 mm | - | - | - |
| 1778054971 | 16.11° C | 72% | 1008.8 hPa | 0 mm | - | - | - |
| 1778053251 | 15° C | 75% | 1008.8 hPa | 0 mm | - | - | - |
| 1778052726 | 15° C | 77% | 1009 hPa | 0 mm | - | - | - |
| 1778052161 | 14.44° C | 77% | 1009.1 hPa | 0 mm | - | - | - |
| 1778051625 | 14.44° C | 78% | 1009.2 hPa | 0 mm | - | - | - |
| 1778051138 | 13.89° C | 78% | 1009.1 hPa | 0 mm | - | - | - |
| 1778050146 | 13.33° C | 79% | 1009.1 hPa | 0 mm | - | - | - |
| 1778049626 | 13.33° C | 79% | 1009.1 hPa | 0 mm | - | - | - |
| 1778049143 | 12.78° C | 80% | 1009 hPa | 0 mm | - | - | - |
| 1778048624 | 12.22° C | 82% | 1009.1 hPa | 0 mm | - | - | - |
| 1778048062 | 12.22° C | 82% | 1008.8 hPa | 0 mm | - | - | - |
| 1778046996 | 11.67° C | 83% | 1009.1 hPa | 0 mm | - | - | - |
| 1778046491 | 11.11° C | 85% | 1009.2 hPa | 0 mm | - | - | - |
| 1778045966 | 11.11° C | 84% | 1009.2 hPa | 0 mm | - | - | - |
| 1778045365 | 11.11° C | 84% | 1009.2 hPa | 0 mm | - | - | - |
| 1778044867 | 10.56° C | 84% | 1009.3 hPa | 0 mm | - | - | - |
| 1778043889 | 10.56° C | 84% | 1009.2 hPa | 0 mm | - | - | - |
| 1778042279 | 11.11° C | 84% | 1009.3 hPa | 0 mm | - | - | - |
| 1778041279 | 10.56° C | 84% | 1009.3 hPa | 0 mm | - | - | - |
| 1778040732 | 10.56° C | 84% | 1009.5 hPa | 0 mm | - | - | - |
| 1778040141 | 10.56° C | 85% | 1009.6 hPa | 0 mm | - | - | - |
| 1778039542 | 10.56° C | 85% | 1009.4 hPa | 0 mm | - | - | - |
* Rain latest hour (hover to see other rain measurements)
** Current wind speed in m/s (hover to see current wind gust speed)